P/2003 R5 ( SOHO )

Japanese version
Home page
Total 6,336 html files since Dec. 4, 1995
Updated on February 24, 2008

---------------------------------------------------------------------

* Profile

* Orbital Elements

Epoch 2003 Aug. 29.0 TT = JDT 2452880.5
T 2003 Sept. 8.81649 TT                                 MPC
q   0.0568899            (2000.0)            P               Q
n   0.24582013     Peri.   43.62425     +0.66148643     -0.74966633
a   2.5238164      Node     5.09358     +0.60721888     +0.51903693
e   0.9774588      Incl.   13.60425     +0.44013740     +0.41061060
P   4.01

* Magnitudes Graph

        m1 = 28.1 + 5 log d + 17.5 log r(t - 0.17)

---------------------------------------------------------------------

The orbital elements are published on M.P.E.C. 2007-S16.
The magnitudes graphs are made with Comet for Windows.

---------------------------------------------------------------------

Copyright(C) 1995-2008 Seiichi Yoshida (comet@aerith.net). All rights reserved.